Date String (YYYY-MM-DD hh:mm:ss) UTC,Instrument flags,Ambient pressure (hPa),Sample flow (lpm),Bypass flow (lpm),Sample temperature (°C),Ambient temperature (°C),ASC tube jacket temperature (°C),LED temperature (°C),Box temperature (°C),Sample RH (%),Span deviation,Mass concentration (μg/m³),Mass concentration (μg/m³),Mass concentration (μg/m³)
DateTimeUTC,F1_M11,P_M11,Q1_M11,Q2_M11,T1_M11,T2_M11,T3_M11,T4_M11,T5_M11,U1_M11,ZSPAN_M11,X0_M11,X2_M11,X1_M11
2022-09-04 21:00:00,,0828.4,5.01,0.00,29.6,27.0,00.0,38.2,31.4,17.5,0000.0,0013.94,0007.01,0006.17
2022-09-04 21:01:00,,0828.4,5.00,0.00,29.5,26.6,00.0,38.1,31.3,17.3,0000.0,0013.96,0006.97,0006.17
2022-09-04 21:02:00,,0828.3,5.00,0.00,29.5,26.9,00.0,38.1,31.3,17.3,0000.0,0013.71,0006.88,0006.15
2022-09-04 21:03:00,,0828.4,4.99,0.00,29.4,27.2,00.0,38.1,31.2,17.4,0000.0,0013.33,0006.81,0006.14
2022-09-04 21:04:00,,0828.4,4.99,0.00,29.4,27.5,00.0,38.1,31.2,16.7,0000.0,0014.28,0006.79,0006.13
2022-09-04 21:05:00,,0828.3,5.00,0.00,29.5,27.8,00.0,38.1,31.3,16.3,0000.0,0014.73,0006.76,0006.12
2022-09-04 21:06:00,,0828.3,5.01,0.00,29.5,28.1,00.0,38.1,31.4,16.5,0000.0,0014.70,0006.78,0006.10
2022-09-04 21:07:00,,0828.3,5.01,0.00,29.5,28.3,00.0,38.1,31.5,16.2,0000.0,0015.29,0006.80,0006.09
2022-09-04 21:08:00,,0828.3,4.98,0.00,29.6,27.6,00.0,38.1,31.4,16.3,0000.0,0014.99,0006.76,0006.08
2022-09-04 21:09:00,,0828.3,5.01,0.00,29.5,26.7,00.0,38.1,31.3,17.1,0000.0,0014.98,0006.76,0006.08
2022-09-04 21:10:00,,0828.3,4.99,0.00,29.5,26.8,00.0,38.1,31.3,17.2,0000.0,0014.94,0006.75,0006.08
2022-09-04 21:11:00,,0828.3,4.99,0.00,29.5,27.1,00.0,38.1,31.3,17.4,0000.0,0013.74,0006.78,0006.08
2022-09-04 21:12:00,,0828.3,5.00,0.00,29.4,27.4,00.0,38.1,31.2,17.6,0000.0,0013.43,0006.81,0006.09
2022-09-04 21:13:00,,0828.3,5.00,0.00,29.5,27.7,00.0,38.1,31.2,17.7,0000.0,0013.29,0006.80,0006.08
2022-09-04 21:14:00,,0828.3,5.01,0.00,29.5,27.9,00.0,38.1,31.3,17.2,0000.0,0013.58,0006.83,0006.09
2022-09-04 21:15:00,,0828.2,5.00,0.00,29.5,28.2,00.0,38.1,31.4,17.0,0000.0,0012.76,0006.81,0006.09
2022-09-04 21:16:00,,0828.2,4.99,0.00,29.6,28.4,00.0,38.1,31.5,17.2,0000.0,0012.22,0006.78,0006.07
2022-09-04 21:17:00,,0828.3,5.00,0.00,29.6,27.7,00.0,38.1,31.4,17.0,0000.0,0013.05,0006.76,0006.06
2022-09-04 21:18:00,,0828.4,5.00,0.00,29.5,26.8,00.0,38.1,31.3,16.9,0000.0,0013.62,0006.78,0006.04
2022-09-04 21:19:00,,0828.2,4.99,0.00,29.5,26.8,00.0,38.1,31.3,17.1,0000.0,0014.41,0006.81,0006.03
2022-09-04 21:20:00,,0828.2,4.99,0.00,29.5,27.1,00.0,38.1,31.3,16.9,0000.0,0014.47,0006.78,0006.00
2022-09-04 21:21:00,,0828.2,5.00,0.00,29.5,27.4,00.0,38.1,31.2,16.8,0000.0,0014.43,0006.73,0005.98
2022-09-04 21:22:00,,0828.2,5.00,0.00,29.5,27.7,00.0,38.1,31.3,16.5,0000.0,0014.40,0006.71,0005.95
2022-09-04 21:23:00,,0828.2,5.00,0.00,29.5,28.0,00.0,38.1,31.4,16.2,0000.0,0014.57,0006.66,0005.92
2022-09-04 21:24:00,,0828.2,5.01,0.00,29.6,28.2,00.0,38.1,31.5,16.0,0000.0,0015.07,0006.64,0005.89
2022-09-04 21:25:00,,0828.2,4.99,0.00,29.6,27.6,00.0,38.1,31.4,15.9,0000.0,0014.82,0006.60,0005.87
2022-09-04 21:26:00,,0828.1,5.00,0.00,29.5,26.6,00.0,38.1,31.3,16.0,0000.0,0014.84,0006.63,0005.86
2022-09-04 21:27:00,,0828.1,5.00,0.00,29.5,26.7,00.0,38.1,31.3,16.2,0000.0,0015.12,0006.66,0005.85
2022-09-04 21:28:00,,0828.1,5.00,0.00,29.5,27.0,00.0,38.1,31.2,16.6,0000.0,0015.22,0006.64,0005.85
2022-09-04 21:29:00,,0828.1,5.00,0.00,29.4,27.3,00.0,38.1,31.2,16.7,0000.0,0014.31,0006.59,0005.85
2022-09-04 21:30:00,,0828.1,5.00,0.00,29.5,27.6,00.0,38.1,31.2,16.7,0000.0,0013.59,0006.54,0005.85
2022-09-04 21:31:00,,0828.1,5.00,0.00,29.5,27.9,00.0,38.1,31.3,16.8,0000.0,0014.12,0006.55,0005.86
2022-09-04 21:32:00,,0828.1,5.00,0.00,29.5,28.2,00.0,38.1,31.4,16.6,0000.0,0014.50,0006.57,0005.86
2022-09-04 21:33:00,,0828.1,4.99,0.00,29.6,28.2,00.0,38.1,31.5,16.4,0000.0,0014.66,0006.61,0005.87
2022-09-04 21:34:00,,0828.1,4.99,0.00,29.6,27.1,00.0,38.2,31.3,16.2,0000.0,0014.42,0006.62,0005.88
2022-09-04 21:35:00,,0828.1,5.00,0.00,29.5,26.6,00.0,38.1,31.2,16.2,0000.0,0013.90,0006.60,0005.88
2022-09-04 21:36:00,,0828.1,5.00,0.00,29.5,26.9,00.0,38.1,31.3,16.5,0000.0,0014.05,0006.60,0005.88
2022-09-04 21:37:00,,0828.0,5.02,0.00,29.5,27.2,00.0,38.1,31.2,16.2,0000.0,0014.59,0006.58,0005.88
2022-09-04 21:38:00,,0828.0,5.00,0.00,29.4,27.5,00.0,38.1,31.2,16.2,0000.0,0015.21,0006.58,0005.89
2022-09-04 21:39:00,,0828.0,5.00,0.00,29.5,27.8,00.0,38.1,31.3,16.1,0000.0,0014.78,0006.56,0005.90
2022-09-04 21:40:00,,0828.0,5.01,0.00,29.5,28.1,00.0,38.1,31.4,15.8,0000.0,0015.33,0006.56,0005.89
2022-09-04 21:41:00,,0828.0,4.98,0.00,29.6,28.3,00.0,38.1,31.5,15.8,0000.0,0015.63,0006.56,0005.89
2022-09-04 21:42:00,,0828.0,5.00,0.00,29.6,27.7,00.0,38.1,31.5,15.9,0000.0,0015.75,0006.55,0005.89
2022-09-04 21:43:00,,0828.0,5.00,0.00,29.6,26.7,00.0,38.1,31.4,15.9,0000.0,0015.89,0006.58,0005.89
2022-09-04 21:44:00,,0828.0,4.99,0.00,29.5,26.7,00.0,38.1,31.4,15.6,0000.0,0015.87,0006.56,0005.87
2022-09-04 21:45:00,,0827.9,5.01,0.00,29.5,27.0,00.0,38.1,31.3,15.3,0000.0,0016.56,0006.59,0005.87
2022-09-04 21:46:00,,0827.9,5.00,0.00,29.4,27.3,00.0,38.1,31.2,15.3,0000.0,0017.76,0006.62,0005.88
2022-09-04 21:47:00,,0827.9,5.00,0.00,29.5,27.6,00.0,38.1,31.3,15.4,0000.0,0017.57,0006.66,0005.90
2022-09-04 21:48:00,,0828.0,5.01,0.00,29.5,27.9,00.0,38.1,31.4,14.9,0000.0,0017.07,0006.69,0005.91
2022-09-04 21:49:00,,0827.9,5.01,0.00,29.5,28.2,00.0,38.1,31.4,14.7,0000.0,0016.32,0006.71,0005.92
2022-09-04 21:50:00,,0828.0,4.98,0.00,29.6,27.7,00.0,38.1,31.4,14.5,0000.0,0015.88,0006.77,0005.93
2022-09-04 21:51:00,,0827.9,5.01,0.00,29.5,26.7,00.0,38.1,31.3,14.7,0000.0,0014.68,0006.82,0005.95
2022-09-04 21:52:00,,0827.9,5.00,0.00,29.5,26.7,00.0,38.1,31.3,14.9,0000.0,0014.28,0006.86,0005.97
2022-09-04 21:53:00,,0828.0,5.00,0.00,29.5,27.0,00.0,38.1,31.3,14.5,0000.0,0013.88,0006.92,0005.99
2022-09-04 21:54:00,,0827.9,4.99,0.00,29.4,27.3,00.0,38.0,31.2,14.5,0000.0,0013.38,0006.96,0006.02
2022-09-04 21:55:00,,0827.9,5.01,0.00,29.4,27.6,00.0,38.0,31.2,14.3,0000.0,0013.30,0006.99,0006.04
2022-09-04 21:56:00,,0827.9,5.01,0.00,29.5,27.9,00.0,38.1,31.3,14.5,0000.0,0013.15,0007.02,0006.07
2022-09-04 21:57:00,,0827.9,5.01,0.00,29.5,28.2,00.0,38.1,31.4,14.6,0000.0,0012.13,0007.03,0006.08
2022-09-04 21:58:00,,0828.0,4.98,0.00,29.6,28.2,00.0,38.1,31.5,14.7,0000.0,0012.08,0007.02,0006.09
2022-09-04 21:59:00,,0827.8,4.99,0.00,29.5,27.2,00.0,38.1,31.3,14.6,0000.0,0012.49,0007.04,0006.09
